Weather Roundup
Issued by NWS

Home | Current Version | Previous Version | Text Only | Print | Product List | Glossary On
Versions: 1 2 3 4 5 6 7 8 9 10 11 12 13 14 15 16 17 18 19 20 21 22 23 24 25 26 27 28 29 30 31 32 33 34 35 36 37 38 39 40 41 42 43 44 45 46 47 48 49 50
743
NZUS93 KARX 300459
HRRWXR

CURRENT HOURLY OBSERVATIONS ACROSS
MUCH OF THE UPPER MISSISSIPPI VALLEY
NATIONAL WEATHER SERVICE LA CROSSE WI
1200 AM CDT SUN APR 30 2017


...SOUTHEAST MINNESOTA...


CITY           SKY/WX    TMP DP  RH WIND       PRES   REMARKS
ROCHESTER      CLOUDY    45  30  55 NE13G22   30.11F
ROCHESTER/MAYO CLOUDY    47  31  53 NE6       30.13F
WINONA         CLOUDY    48  32  53 NE6       30.14F
AUSTIN         CLOUDY    45  30  57 E16G24    30.09F
ALBERT LEA     CLOUDY    45  30  57 NE10      30.09F
DODGE CENTER   CLOUDY    45  30  57 NE13      30.12F
PRESTON        CLOUDY    43  29  58 NE9       30.09F
OWATONNA       CLOUDY    46  30  53 NE9       30.11F
FARIBAULT      CLOUDY    46  30  53 N8        30.13F
$$

...ELSEWHERE IN MINNESOTA...


CITY           SKY/WX    TMP DP  RH WIND       PRES   REMARKS
MINNEAPOLIS    CLOUDY    48  25  40 NE15G22   30.18F
INTNL FALLS    CLOUDY    35  22  58 SE5       30.28R WCI  31
DULUTH         CLOUDY    36  17  46 E5        30.26F WCI  32
RED WING       CLOUDY    50  23  34 NE7       30.14F
REDWOOD FALLS  CLOUDY    48  25  40 VRB6      30.15F
MANKATO        CLOUDY    48  30  49 NE12      30.12F
WORTHINGTON    CLOUDY    44  27  51 NE13      30.12F
FAIRMONT       CLOUDY    46  32  58 NE9       30.11F
$$

...SOUTHWEST WISCONSIN...


CITY           SKY/WX    TMP DP  RH WIND       PRES   REMARKS
LA CROSSE      CLOUDY    48  26  42 NE17G28   30.13F
PRAIRIE DU CHI CLOUDY    43  28  55 NE8       30.08S
BOSCOBEL       CLOUDY    45  29  53 NE10G20   30.10F
LONE ROCK      NOT AVBL
PLATTEVILLE    CLOUDY    40  38  96 NE15      30.07S WCI  31
FORT MC COY    CLOUDY    45  29  54 E14G20    30.14F
MAUSTON-NEW LI CLOUDY    45  28  52 E9G16     30.13F
VIROQUA        CLOUDY    42  28  56 E20G26    30.10F
WIS DELLS      CLOUDY    42  29  61 NE14G24   30.11F
$$

...ELSEWHERE IN WISCONSIN...


CITY           SKY/WX    TMP DP  RH WIND       PRES   REMARKS
MILWAUKEE      CLOUDY    42  40  92 NE15      30.11R
MADISON        LGT RAIN  39  36  89 NE12      30.12R WCI  32
GREEN BAY      CLOUDY    43  34  70 NE28G36   30.17S
EAU CLAIRE     CLOUDY    48  26  42 NE10      30.17S
BLACK RVR FLS  CLOUDY    46  26  45 NE9       30.15F
MEDFORD        CLOUDY    42  22  44 NE9       30.17F
WAUSAU         CLOUDY    43  18  36 NE13G21   30.16F
WIS RAPIDS     CLOUDY    45  25  45 E9G21     30.17R
MARSHFIELD     CLOUDY    43  27  53 NE12      30.15F
RICE LAKE      CLOUDY    42  27  54 NE9       30.24R
$$

...NORTHEAST IOWA...


CITY           SKY/WX    TMP DP  RH WIND       PRES   REMARKS
WATERLOO       CLOUDY    41  35  79 NE13      30.06F
DUBUQUE        CLOUDY    38  37  97 NE15      30.03F FOG     WCI  29
DECORAH        CLOUDY    43  27  52 E12G22    30.07S
MASON CITY     CLOUDY    43  33  68 NE12      30.09F
CHARLES CITY   LGT RAIN  43  30  61 NE12G20   30.08F
OELWEIN        CLOUDY    41  36  81 NE17      30.04F
$$

...ELSEWHERE IN IOWA...


CITY           SKY/WX    TMP DP  RH WIND       PRES   REMARKS
DES MOINES     LGT RAIN  41  39  93 NE14G24   29.98F FOG
IOWA CITY      CLOUDY    41  39  93 NE17G25   29.98F FOG
FORT DODGE     CLOUDY    39  34  81 NE12G17   30.08S WCI  32
MARSHALLTOWN   LGT RAIN  39  38  96 NE18      30.02F FOG     WCI  30
CEDAR RAPIDS   LGT RAIN  40  40 100 NE15      29.98F FOG     WCI  32
$$

...NORTHERN ILLINOIS...


CITY           SKY/WX    TMP DP  RH WIND       PRES   REMARKS
CHICAGO-OHARE  LGT RAIN  44  41  89 NE18      29.98R FOG
CHICAGO-MIDWAY LGT RAIN  45  44  97 NE20      29.96F FOG
MOLINE         NOT AVBL
ROCKFORD       DRIZZLE   44  41  89 NE15G28   30.01F FOG
PEORIA         CLOUDY    46  45  96 NE14      29.89F
$$

NOTE: "FAIR" INDICATES FEW OR NO CLOUDS BELOW 12,000 FEET WITH NO
SIGNIFICANT WEATHER AND/OR OBSTRUCTIONS TO VISIBILITY. WIND
SPEEDS ARE IN MILES-PER-HOUR.




USA.gov is the U.S. government's official web portal to all federal, state and local government web resources and services.